Weather reports worldwide

Advertisment
Cordoba Aeropuerto (AWS), Spain (8410): temperature & dewpoint: 26.06.2020 08:00:00 - 02.07.2020 08:00:00 (CEST)Cordoba Aeropuerto (AWS), Spain (8410): wind speed: 26.06.2020 08:00:00 - 02.07.2020 08:00:00 (CEST)Cordoba Aeropuerto (AWS), Spain (8410): wind direction: 26.06.2020 08:00:00 - 02.07.2020 08:00:00 (CEST)Cordoba Aeropuerto (AWS), Spain (8410): reduced air pressure: 26.06.2020 08:00:00 - 02.07.2020 08:00:00 (CEST)Cordoba Aeropuerto (AWS), Spain (8410): visibility: 26.06.2020 08:00:00 - 02.07.2020 08:00:00 (CEST)
Date & Time tt [°C] td [°C] ff [km/h] ff [kn] dd ppp [hPa] vv [km]
02.07.2020 08:00:00 - - - - - - -
02.07.2020 07:00:00 19,9 16,7 9 5 SW 1015,4 -
02.07.2020 06:00:00 20,7 16,3 11 6 WSW 1014,8 -
02.07.2020 05:00:00 21,3 15,6 9 5 WSW 1014,5 -
02.07.2020 04:00:00 22,5 15,1 9 5 WSW 1014,6 -
02.07.2020 03:00:00 23,3 12,6 8 4 WSW 1014,0 -
02.07.2020 02:00:00 24,0 11,7 9 5 SW 1014,2 -
02.07.2020 01:00:00 25,4 11,9 8 4 W 1013,7 -
02.07.2020 00:00:00 26,8 10,9 9 5 WSW 1013,3 -
01.07.2020 23:00:00 28,8 10,9 13 7 WSW 1012,7 -
01.07.2020 22:00:00 30,1 12,1 15 8 W 1011,9 -
01.07.2020 21:00:00 33,3 11,2 16 9 W 1011,6 -
01.07.2020 20:00:00 35,2 9,6 18 10 W 1011,3 40
01.07.2020 19:00:00 36,0 9,5 21 11 W 1011,4 -
01.07.2020 18:00:00 36,2 9,8 21 11 W 1011,7 -
01.07.2020 17:00:00 35,7 7,9 16 9 W 1012,2 30
01.07.2020 16:00:00 35,6 11,1 16 9 W 1012,6 -
01.07.2020 15:00:00 34,3 12,6 15 8 SW 1013,1 -
01.07.2020 14:00:00 32,2 14,8 13 7 W 1014,0 30
01.07.2020 13:00:00 30,5 16,5 11 6 W 1014,4 -
01.07.2020 12:00:00 28,2 17,0 8 4 WSW 1014,9 -
01.07.2020 11:00:00 25,8 17,4 9 5 W 1015,1 20
01.07.2020 10:00:00 24,1 18,1 5 3 SW 1015,4 -
01.07.2020 09:00:00 22,0 18,2 8 4 WSW 1015,1 -
01.07.2020 08:00:00 21,0 17,6 8 4 SSW 1014,9 10
01.07.2020 07:00:00 20,2 16,8 9 5 SSW 1014,3 -
01.07.2020 06:00:00 20,5 18,1 8 4 SSW 1014,0 -
01.07.2020 05:00:00 20,9 18,7 9 5 WSW 1013,6 -
01.07.2020 04:00:00 21,6 18,8 13 7 WSW 1013,4 -
01.07.2020 03:00:00 22,3 17,9 13 7 WSW 1013,7 -
01.07.2020 02:00:00 23,7 16,6 16 9 SW 1013,6 -
01.07.2020 01:00:00 25,5 16,1 16 9 W 1013,0 -
01.07.2020 00:00:00 27,0 16,6 15 8 W 1012,0 -
30.06.2020 23:00:00 29,0 16,5 24 13 WSW 1011,1 -
30.06.2020 22:00:00 31,2 15,6 22 12 W 1010,1 -
30.06.2020 21:00:00 34,1 12,6 22 12 WSW 1009,3 -
30.06.2020 20:00:00 35,8 10,8 21 11 WSW 1008,8 20
30.06.2020 19:00:00 36,8 10,2 24 13 W 1008,7 -
30.06.2020 18:00:00 37,4 9,9 24 13 W 1009,3 -
30.06.2020 17:00:00 37,5 9,7 22 12 WSW 1009,5 20
30.06.2020 16:00:00 37,1 9,6 18 10 W 1010,1 -
30.06.2020 15:00:00 37,4 10,0 18 10 WSW 1010,5 -
30.06.2020 14:00:00 36,4 8,3 11 6 SW 1011,1 20
30.06.2020 13:00:00 33,6 11,3 8 4 W 1011,7 -
30.06.2020 12:00:00 31,6 11,4 8 4 W 1012,0 -
30.06.2020 11:00:00 30,4 10,9 4 2 ENE 1012,2 25
30.06.2020 10:00:00 28,4 11,5 4 2 SE 1012,3 -
30.06.2020 09:00:00 25,5 13,0 4 2 NE 1012,3 -
30.06.2020 08:00:00 21,6 14,8 2 1 WSW 1012,1 40
30.06.2020 07:00:00 21,2 13,6 4 2 NNE 1011,7 -
30.06.2020 06:00:00 22,3 12,8 8 4 S 1011,4 -
30.06.2020 05:00:00 23,2 12,0 9 5 SW 1011,7 -
30.06.2020 04:00:00 25,2 10,6 11 6 WSW 1011,8 -
30.06.2020 03:00:00 25,9 10,9 5 3 W 1012,1 -
30.06.2020 02:00:00 27,9 8,1 11 6 WSW 1011,8 -
30.06.2020 01:00:00 28,0 10,2 8 4 W 1011,7 -
30.06.2020 00:00:00 30,0 6,0 9 5 SW 1011,4 -
29.06.2020 23:00:00 30,2 13,5 5 3 WSW 1010,6 -
29.06.2020 22:00:00 32,6 14,7 8 4 W 1009,7 -
29.06.2020 21:00:00 37,2 12,3 8 4 W 1009,4 -
29.06.2020 20:00:00 38,9 10,7 13 7 W 1009,2 30
29.06.2020 19:00:00 39,9 8,4 11 6 W 1009,5 -
29.06.2020 18:00:00 39,9 9,3 8 4 WNW 1010,0 -
29.06.2020 17:00:00 39,8 8,3 11 6 WSW 1010,7 30
29.06.2020 16:00:00 39,0 10,4 5 3 SE 1011,6 -
29.06.2020 15:00:00 38,2 11,3 8 4 WSW 1012,4 -
29.06.2020 14:00:00 36,7 12,2 5 3 WNW 1013,4 30
29.06.2020 13:00:00 35,0 12,3 8 4 NW 1014,1 -
29.06.2020 12:00:00 33,3 11,8 4 2 SW 1014,8 -
29.06.2020 11:00:00 31,0 13,7 4 2 SE 1015,1 30
29.06.2020 10:00:00 28,5 13,2 8 4 E 1015,2 -
29.06.2020 09:00:00 26,1 14,2 4 2 NNE 1015,2 -
29.06.2020 08:00:00 22,5 14,9 2 1 SW 1015,2 30
29.06.2020 07:00:00 21,1 14,5 5 3 SSW 1015,3 -
29.06.2020 06:00:00 21,4 14,8 8 4 SW 1015,0 -
29.06.2020 05:00:00 22,5 14,9 8 4 SSW 1014,8 -
29.06.2020 04:00:00 23,7 14,9 9 5 W 1014,9 -
29.06.2020 03:00:00 26,0 14,8 9 5 SW 1014,8 -
29.06.2020 02:00:00 27,3 14,0 11 6 SSW 1014,6 -
29.06.2020 01:00:00 27,1 14,0 8 4 SSW 1014,2 -
29.06.2020 00:00:00 28,7 13,4 8 4 S 1013,8 -
28.06.2020 23:00:00 28,9 13,9 8 4 WSW 1013,2 -
28.06.2020 22:00:00 31,6 12,9 9 5 W 1012,4 -
28.06.2020 21:00:00 36,2 10,4 9 5 WSW 1012,0 -
28.06.2020 20:00:00 38,4 7,2 11 6 SW 1012,0 40
28.06.2020 19:00:00 38,7 7,4 9 5 WSW 1012,1 -
28.06.2020 18:00:00 38,8 7,5 9 5 WSW 1012,6 -
28.06.2020 17:00:00 38,5 6,3 5 3 ENE 1013,1 40
28.06.2020 16:00:00 37,9 8,6 11 6 SSW 1013,7 -
28.06.2020 15:00:00 37,1 10,4 5 3 SW 1014,3 -
28.06.2020 14:00:00 35,9 10,2 8 4 NE 1014,9 40
28.06.2020 13:00:00 34,1 10,7 8 4 E 1015,8 -
28.06.2020 12:00:00 32,1 12,7 9 5 E 1016,3 -
28.06.2020 11:00:00 28,5 14,7 4 2 N 1016,6 40
28.06.2020 10:00:00 26,2 15,3 4 2 NNE 1016,9 -
28.06.2020 09:00:00 24,2 15,1 4 2 E 1017,1 -
28.06.2020 08:00:00 20,5 15,3 5 3 SSW 1016,7 40
28.06.2020 07:00:00 19,1 15,6 4 2 SSW 1016,4 -
28.06.2020 06:00:00 19,6 15,7 4 2 W 1016,3 -
28.06.2020 05:00:00 20,2 15,2 8 4 W 1016,4 -
28.06.2020 04:00:00 21,3 15,4 8 4 WSW 1016,4 -
28.06.2020 03:00:00 22,4 15,5 11 6 WSW 1016,1 -
28.06.2020 02:00:00 24,1 15,8 11 6 WSW 1015,9 -
28.06.2020 01:00:00 25,8 15,5 13 7 WSW 1015,7 -
28.06.2020 00:00:00 27,2 15,2 13 7 W 1015,5 -
27.06.2020 23:00:00 28,8 14,2 18 10 WSW 1014,8 -
27.06.2020 22:00:00 30,1 11,5 11 6 W 1013,5 -
27.06.2020 21:00:00 33,2 11,1 15 8 W 1013,1 -
27.06.2020 20:00:00 35,0 10,8 13 7 W 1013,0 40
27.06.2020 19:00:00 35,3 9,7 15 8 W 1013,1 -
27.06.2020 18:00:00 35,4 9,0 16 9 W 1013,6 -
27.06.2020 17:00:00 35,3 9,7 8 4 SSW 1013,9 40
27.06.2020 16:00:00 34,8 10,6 11 6 SW 1014,6 -
27.06.2020 15:00:00 32,9 10,9 8 4 S 1015,3 -
27.06.2020 14:00:00 31,8 11,0 8 4 SSE 1015,9 40
27.06.2020 13:00:00 30,0 10,0 8 4 SW 1016,7 -
27.06.2020 12:00:00 28,0 10,7 5 3 S 1017,4 -
27.06.2020 11:00:00 25,5 12,3 4 2 S 1017,7 30
27.06.2020 10:00:00 22,3 13,9 4 2 S 1018,0 -
27.06.2020 09:00:00 20,5 13,6 4 2 ESE 1017,8 -
27.06.2020 08:00:00 16,7 13,4 2 1 W 1017,8 30
27.06.2020 07:00:00 16,5 12,9 0 0 N 1017,5 -
27.06.2020 06:00:00 16,9 13,0 8 4 SW 1017,1 -
27.06.2020 05:00:00 18,0 12,9 5 3 WSW 1016,9 -
27.06.2020 04:00:00 18,5 12,7 5 3 WSW 1016,7 -
27.06.2020 03:00:00 19,8 12,5 9 5 SW 1016,6 -
27.06.2020 02:00:00 20,9 12,6 11 6 WSW 1016,6 -
27.06.2020 01:00:00 22,5 12,4 15 8 WSW 1016,5 -
27.06.2020 00:00:00 24,3 12,9 15 8 WSW 1015,4 -
26.06.2020 23:00:00 26,0 12,8 18 10 WSW 1014,8 -
26.06.2020 22:00:00 27,9 13,4 18 10 WSW 1013,5 -
26.06.2020 21:00:00 29,9 10,9 15 8 WSW 1012,9 -
26.06.2020 20:00:00 31,5 11,8 18 10 WSW 1012,7 30
26.06.2020 19:00:00 32,3 5,5 21 11 WSW 1012,8 -
26.06.2020 18:00:00 32,8 7,6 21 11 WSW 1013,3 -
26.06.2020 17:00:00 31,7 10,8 21 11 W 1013,7 20
26.06.2020 16:00:00 30,5 15,8 21 11 W 1014,3 -
26.06.2020 15:00:00 29,3 15,5 16 9 WSW 1014,9 -
26.06.2020 14:00:00 27,1 16,3 15 8 SW 1015,7 20
26.06.2020 13:00:00 25,1 16,5 15 8 W 1016,5 -
26.06.2020 12:00:00 23,5 16,5 11 6 WSW 1016,5 -
26.06.2020 11:00:00 22,0 16,5 9 5 WSW 1016,7 15
26.06.2020 10:00:00 20,9 16,5 5 3 WSW 1016,3 -
26.06.2020 09:00:00 20,5 16,7 9 5 SW 1016,2 -
26.06.2020 08:00:00 20,1 16,9 13 7 SW 1016,1 15

tt = temperature
td = dewpoint
ff = wind speed
dd = wind direction
ppp = reduced air pressure
vv = visibility

Next stations